CST,Max TemperatureF,Mean TemperatureF,Min TemperatureF,Max Dew PointF,MeanDew PointF,Min DewpointF,Max Humidity, Mean Humidity, Min Humidity, Max Sea Level PressureIn, Mean Sea Level PressureIn, Min Sea Level PressureIn, Max VisibilityMiles, Mean VisibilityMiles, Min VisibilityMiles, Max Wind SpeedMPH, Mean Wind SpeedMPH, Max Gust SpeedMPH,PrecipitationIn, CloudCover, Events, WindDirDegrees
2013-11-1,41,39,37,41,38,35,100,93,85,29.74,29.51,29.26,10,7,1,15,10,21,0.00,8,Rain,304
2013-11-2,40,33,26,35,31,25,97,89,69,30.12,29.95,29.74,10,10,7,10,6,,0.00,7,Rain,335
2013-11-3,44,35,27,35,31,27,100,85,63,30.21,30.15,30.08,10,8,0,18,6,26,0.00,4,Fog,137
2013-11-4,44,41,38,42,37,33,97,85,71,30.13,30.01,29.93,10,9,2,17,13,29,0.06,6,Rain,173
2013-11-5,43,36,30,38,35,31,100,93,76,30.24,30.12,29.87,10,5,0,14,5,21,0.22,8,Fog-Rain,39
2013-11-6,35,30,26,33,28,23,97,85,66,30.10,29.94,29.82,10,9,2,17,12,23,0.04,5,Rain-Snow,321
2013-11-7,33,28,23,27,24,21,96,83,64,30.16,30.13,30.09,10,8,2,14,5,18,0.00,4,,268
2013-11-8,36,30,24,34,27,24,99,87,72,30.18,30.02,29.67,10,6,0,22,7,29,0.01,7,Fog-Rain,156
2013-11-9,41,37,33,39,33,26,95,83,67,30.02,29.77,29.60,10,9,3,25,15,37,0.01,8,Rain,265
2013-11-10,40,36,33,32,28,25,94,72,59,30.26,30.15,30.03,10,10,5,18,11,28,0.00,6,Snow,274
2013-11-11,34,25,16,32,15,6,93,67,41,30.55,30.28,30.02,10,9,2,22,11,32,0.00,5,Snow,334
2013-11-12,24,17,10,12,9,7,84,70,51,30.65,30.56,30.42,10,10,10,13,9,21,0.00,0,Snow,277
2013-11-13,43,30,16,29,20,11,81,68,54,30.42,30.09,29.87,10,10,10,20,10,30,0.00,0,,216
2013-11-14,37,33,29,31,27,24,92,78,69,29.87,29.81,29.77,10,10,10,9,6,,0.00,3,,209
2013-11-15,48,37,26,38,32,25,99,85,62,29.86,29.81,29.75,10,8,0,10,4,,0.00,2,Fog,189
2013-11-16,51,43,35,50,39,32,99,92,80,29.75,29.53,29.31,10,7,0,16,10,23,0.48,7,Fog-Rain-Thunderstorm,158
2013-11-17,46,38,30,43,36,26,98,88,79,29.60,29.36,29.22,10,9,2,28,9,44,0.01,5,Rain,255
2013-11-18,30,26,21,26,20,16,86,73,64,30.20,29.93,29.61,10,10,10,28,18,39,0.00,8,,298
2013-11-19,34,24,14,24,19,12,93,74,56,30.27,30.19,30.08,10,10,10,16,5,24,0.00,2,,142
2013-11-20,35,33,31,32,28,24,99,82,67,30.09,30.05,30.02,10,6,0,18,11,24,0.21,8,Snow,150
2013-11-21,33,30,26,32,30,23,100,96,86,30.33,30.16,30.05,10,3,0,15,5,21,0.12,8,Fog-Snow,324
2013-11-22,26,22,16,22,14,6,89,72,53,30.45,30.39,30.33,10,9,2,17,11,24,0.00,4,Snow,298
2013-11-23,16,8,0,7,-1,-5,83,66,45,30.63,30.57,30.40,10,10,5,17,11,25,0.00,2,Snow,310
2013-11-24,21,8,-4,10,0,-9,86,67,46,30.60,30.34,29.99,10,10,10,20,6,24,0.00,2,,200
2013-11-25,33,27,21,26,20,10,78,70,60,29.97,29.89,29.84,10,10,10,18,14,25,0.00,8,,242
2013-11-26,30,18,5,22,7,-1,85,67,51,30.20,30.06,29.92,10,9,0,20,12,26,0.00,5,Snow,306
2013-11-27,21,13,5,16,9,2,91,80,60,30.23,30.17,30.09,10,7,0,13,7,16,0.01,4,Snow,289
2013-11-28,22,14,7,16,13,5,92,83,67,30.44,30.21,30.05,10,9,4,8,4,,0.00,5,Snow,289
2013-11-29,24,21,18,18,15,14,90,76,70,30.51,30.40,30.21,10,9,0,15,3,20,0.00,2,Fog,150
2013-11-30,34,28,22,26,22,18,85,77,66,30.20,30.05,29.98,10,10,10,12,7,20,0.00,3,,219